AO-07 1 07530U 74089B 22349.87365793 -.00000025 00000-0 13061-3 0 9993 2 07530 101.9285 330.4629 0012440 54.7006 311.5031 12.53659310200442 UO-11 1 14781U 84021B 22349.51357542 .00001322 00000-0 16467-3 0 9993 2 14781 97.6371 328.9189 0009882 86.5412 273.6933 14.84035479 66896 AO-16 1 20439U 90005D 22349.55241626 .00000188 00000-0 85761-4 0 9991 2 20439 98.8666 330.2656 0011268 26.5951 90.7203 14.32970669718604 LO-19 1 20442U 90005G 22349.49082561 .00000202 00000-0 90341-4 0 9996 2 20442 98.8204 317.3496 0011811 2.9510 357.1741 14.33124140719038 HUBBLE 1 20580U 90037B 22349.46797082 .00003537 00000-0 19347-3 0 9992 2 20580 28.4712 48.7045 0002540 183.1566 196.6181 15.11410407593621 MET-2/21 1 22782U 93055A 22349.76193498 .00000098 00000-0 74884-4 0 9992 2 22782 82.5498 230.3287 0021807 195.9910 228.1127 13.83866474479357 AO-27 1 22825U 93061C 22349.85132103 .00000098 00000-0 55686-4 0 9992 2 22825 98.8675 24.5487 0007556 239.2905 120.7533 14.30218236524357 IO-26 1 22826U 93061D 22349.55062138 .00000120 00000-0 63828-4 0 9993 2 22826 98.8620 24.1116 0008242 225.4252 134.6257 14.30569460524308 FO-29 1 24278U 96046B 22349.51883404 .00000021 00000-0 56306-4 0 9998 2 24278 98.5141 348.2682 0350422 173.2776 187.3248 13.53125808300096 NOAA-15 1 25338U 98030A 22349.49663957 .00000161 00000-0 85242-4 0 9993 2 25338 98.6269 16.5138 0011243 126.7258 233.4957 14.26208058279073 GO-32 1 25397U 98043D 22349.45841977 .00000115 00000-0 69987-4 0 9995 2 25397 98.8435 300.6076 0000813 1.1368 358.9811 14.23794947269189 ISS 1 25544U 98067A 22349.69494484 .00009378 00000-0 17231-3 0 9992 2 25544 51.6423 157.4258 0004005 164.0593 286.0486 15.49962276373336 NO-44 1 26931U 01043C 22349.36578325 .00000192 00000-0 10465-3 0 9999 2 26931 67.0516 311.4096 0005241 273.0265 87.0237 14.30776430107289 SO-50 1 27607U 02058C 22349.59807800 .00001642 00000-0 24318-3 0 9998 2 27607 64.5543 107.4412 0080754 260.1067 99.0912 14.76482670 75115 CO-55 1 27844U 03031E 22349.54818928 .00000343 00000-0 17320-3 0 9993 2 27844 98.6794 354.5184 0008919 300.8758 59.1543 14.22559357 9625 CO-57 1 27848U 03031J 22349.49800360 .00000290 00000-0 15065-3 0 9997 2 27848 98.6834 354.9459 0008970 317.2364 42.8115 14.22101345 9449 RS-22 1 27939U 03042A 22349.69984666 .00001014 00000-0 18698-3 0 9994 2 27939 98.2162 130.6935 0012476 1.9187 358.2067 14.67666652 27620 NOAA-18 1 28654U 05018A 22349.79341211 .00000211 00000-0 13723-3 0 9990 2 28654 98.9317 59.9235 0014471 175.4199 184.7107 14.12822323905673 CO-58 1 28895U 05043F 22349.09691530 .00001290 00000-0 25087-3 0 9994 2 28895 98.1296 117.9971 0015329 294.0954 65.8644 14.64724802913854 Falconsat-3 1 30776U 07006E 22348.75762967 .00205932 00000-0 10248-2 0 9992 2 30776 35.4236 142.8266 0007224 21.2537 338.8502 15.80315044877802 CO-65 1 32785U 08021C 22349.42422687 .00002786 00000-0 29139-3 0 9991 2 32785 97.6828 314.8603 0012682 1.3901 358.7350 14.90379067793438 AAUSAT2 1 32788U 08021F 22349.49532450 .00007720 00000-0 63598-3 0 9991 2 32788 97.5525 328.7777 0008872 221.3433 138.7120 14.99305427795543 DO-64 1 32789U 08021G 22349.60319590 .00023424 00000-0 11183-2 0 9994 2 32789 97.3253 9.7777 0010918 57.9432 302.2861 15.18999432799475 CO-66 1 32791U 08021J 22348.97823324 .00004066 00000-0 38779-3 0 9993 2 32791 97.6347 319.7465 0011608 314.0625 45.9639 14.93830224794138 RS-30 1 32953U 08025A 22349.54461990 .00000024 00000-0 10000-3 0 9995 2 32953 82.5049 71.3190 0019002 222.4166 137.5447 12.43116034660837 PRISM 1 33493U 09002B 22349.57695220 .00007381 00000-0 56991-3 0 9991 2 33493 98.2496 346.9127 0015334 305.6627 54.3168 15.01790696756143 NOAA-19 1 33591U 09005A 22349.60303269 .00000197 00000-0 13096-3 0 9993 2 33591 99.1272 27.3649 0014458 42.4200 317.8086 14.12651437714029 SRMSAT 1 37841U 11058D 22349.42106573 .00000426 00000-0 89098-4 0 9996 2 37841 19.9711 241.0051 0011940 172.1124 344.0591 14.10802803576820 HRBE 1 37855U 11061F 22349.89657658 .00017606 00000-0 70054-3 0 9990 2 37855 101.7135 205.8723 0142077 237.2876 121.4577 15.16530322609168 RS-40 1 38735U 12041C 22349.25491864 .00000002 00000-0 -52665-4 0 9994 2 38735 82.4733 152.7862 0017304 339.6283 20.4109 12.42589161470977 ZACUBE-1 1 39417U 13066B 22349.43512494 .00002277 00000-0 27789-3 0 9996 2 39417 97.6620 313.0786 0056930 169.4853 190.7566 14.83130910489941 Delfi-N3xt 1 39428U 13066N 22349.02582562 .00003856 00000-0 58429-3 0 9995 2 39428 97.8262 275.8005 0116895 60.3831 300.8961 14.70143758485059 GOMX-1 1 39430U 13066Q 22349.33418723 .00001638 00000-0 29707-3 0 9992 2 39430 97.7959 246.1091 0147452 193.8820 165.8298 14.60722947482694 LO-74 1 39440U 13066AA 22349.43585232 .00002898 00000-0 39237-3 0 9992 2 39440 97.7510 299.6732 0076154 264.3443 94.9081 14.77737044487002 AO-73 1 39444U 13066AE 22349.44622174 .00002891 00000-0 34084-3 0 9992 2 39444 97.6490 315.5307 0055888 156.4096 203.9701 14.84381732488362 SPROUT 1 39770U 14029E 22349.31520963 .00012165 00000-0 11513-2 0 9999 2 39770 97.9565 107.8674 0007864 204.4452 155.6370 14.93771693464638 DTUSAT-2 1 40030U 14033W 22349.05173988 .00003270 00000-0 33733-3 0 9993 2 40030 97.9521 282.7429 0011251 171.1461 188.9957 14.90870966460543 EO-80 1 40032U 14033Y 22349.56387045 .00003955 00000-0 40683-3 0 9994 2 40032 97.9522 283.2745 0011265 170.8852 189.2572 14.90855962460599 HODOYOSHI-1 1 40299U 14070B 22349.64390459 .00007811 00000-0 27949-3 0 9997 2 40299 97.2228 52.4352 0010859 206.2141 307.5867 15.28998199450721 FIREBIRD FU3 1 40377U 15003B 22349.69838637 .00032538 00000-0 77753-3 0 9993 2 40377 99.0778 255.7977 0085599 126.9231 233.9889 15.37634275436193 FIREBIRD FU4 1 40378U 15003C 22349.19137452 .00030222 00000-0 72109-3 0 9994 2 40378 99.0791 255.4309 0085460 128.0969 232.8017 15.37707986436116 GRIFEX 1 40379U 15003D 22349.66704989 .00017507 00000-0 54909-3 0 9991 2 40379 99.0860 239.5435 0104835 176.7673 183.4262 15.27856409435258 XW-2A 1 40903U 15049E 22349.73342153 .00051469 00000-0 53396-3 0 9997 2 40903 97.1522 49.4016 0007992 154.3923 323.5645 15.64473241407480 XW-2C 1 40906U 15049H 22349.89431074 .00007978 00000-0 35920-3 0 9997 2 40906 97.4961 352.1410 0014976 86.1670 357.8691 15.21244623400483 XW-2D 1 40907U 15049J 22349.50677360 .00009337 00000-0 40805-3 0 9995 2 40907 97.4946 351.9257 0014264 82.2678 68.7729 15.22224078400481 LILACSAT-2 1 40908U 15049K 22349.51679295 .00004198 00000-0 21519-3 0 9997 2 40908 97.5225 348.5085 0016418 106.1503 51.4561 15.17000265399923 XW-2E 1 40909U 15049L 22349.49003314 .00015477 00000-0 57636-3 0 9999 2 40909 97.4618 356.9468 0012841 60.6395 93.1100 15.27484210401008 XW-2F 1 40910U 15049M 22349.48303815 .00015344 00000-0 58095-3 0 9992 2 40910 97.4708 356.1210 0013751 61.3842 99.0470 15.26928001400760 XW-2B 1 40911U 15049N 22349.48125063 .00009258 00000-0 40633-3 0 9996 2 40911 97.4924 352.4347 0014208 83.1190 69.8947 15.22082618400368 DCBB 1 40912U 15049P 22349.48344941 .00018280 00000-0 61746-3 0 9998 2 40912 97.4310 0.4825 0012686 29.2181 132.6687 15.30641473401391 TW-1A 1 40928U 15051D 22349.63405696 .00473957 96718-4 10253-2 0 9997 2 40928 97.0047 13.4483 0005741 82.1219 38.9313 15.98374724406686 IO-86 1 40931U 15052B 22349.63696864 .00001070 00000-0 59306-4 0 9993 2 40931 5.9963 316.5176 0012883 218.8355 141.1184 14.76941787390178 AO-85 1 40967U 15058D 22348.46154370 .00001955 00000-0 22829-3 0 5615 2 40967 64.7750 243.9058 0171321 139.7545 221.6402 14.78236400 87262 ATHENOXAT-1 1 41168U 15077C 22348.91159774 .00027842 00000-0 97426-3 0 9996 2 41168 14.9980 187.6604 0008261 266.8041 131.7579 15.27293055387874 ChubuSat-2 1 41338U 16012B 22349.19392977 .00003188 00000-0 22979-3 0 9998 2 41338 31.0041 312.4800 0012923 148.2746 211.8671 15.02170659374676 ChubuSat-3 1 41339U 16012C 22349.60967569 .00002864 00000-0 20568-3 0 9992 2 41339 31.0110 306.7537 0012624 160.4210 4.2018 15.02185406374739 Horyu-4 1 41340U 16012D 22349.50189597 .00005644 00000-0 38491-3 0 9993 2 41340 31.0048 281.8602 0012878 206.0275 153.9715 15.04674181375008 e-st@r-II 1 41459U 16025D 22349.45233732 .00014369 00000-0 55614-3 0 9993 2 41459 98.1909 168.7803 0132522 13.5981 346.8780 15.18436622364913 AAUSAT4 1 41460U 16025E 22349.49059904 .00030649 00000-0 95195-3 0 9993 2 41460 98.1777 177.0273 0106255 342.3984 73.1978 15.27868339365499 LO-87 1 41557U 16033B 22349.62680685 .00024186 00000-0 59629-3 0 9991 2 41557 97.3900 88.2886 0010888 89.3653 22.9492 15.40489975365218 NuSat2 1 41558U 16033C 22349.76536868 .00022680 00000-0 52684-3 0 9991 2 41558 97.4149 95.1935 0010356 78.0766 74.9983 15.42308922365538 Lapan A3 1 41603U 16040E 22349.89618377 .00001965 00000-0 90842-4 0 9992 2 41603 97.1860 18.8713 0011433 238.5900 244.9963 15.21233614359613 Pratham 1 41783U 16059A 22349.54824258 .00000624 00000-0 12831-3 0 9992 2 41783 97.8923 23.6579 0032435 323.5591 36.3404 14.63537730332119 TY-1 1 41844U 16066D 22349.60060875 .00022657 00000-0 64884-3 0 9997 2 41844 97.3829 1.3413 0012242 11.5726 142.2060 15.35864187339352 CAS-2T 1 41847U 16066G 22349.43842251 .00000854 00000-0 13675-3 0 9994 2 41847 98.5301 53.7433 0363032 28.4468 333.6018 14.38954601320376 EO-88 1 42017U 17008BX 22348.68227488 .00030074 00000-0 69838-3 0 9995 2 42017 97.2465 52.7632 0003182 336.8771 23.2333 15.42310477324776 CAS-4B 1 42759U 17034B 22349.59067926 .00006387 00000-0 36213-3 0 9998 2 42759 43.0185 53.2282 0010712 349.1365 156.4732 15.13518819303785 CAS-4A 1 42761U 17034D 22349.47992462 .00006749 00000-0 38086-3 0 9992 2 42761 43.0175 52.4945 0010990 350.2334 133.1937 15.13615312303775 NIUSat 1 42766U 17036B 22349.61079782 .00014241 00000-0 49194-3 0 9994 2 42766 97.1824 21.1401 0013913 48.2613 311.9815 15.29944338304461 Aalto 1 1 42775U 17036L 22349.64202367 .00011125 00000-0 40305-3 0 9997 2 42775 97.1776 20.7047 0013046 48.8865 311.3500 15.28456892304423 URSA MAIOR 1 42776U 17036M 22349.60665563 .00012805 00000-0 45095-3 0 9992 2 42776 97.1788 21.6142 0012682 47.3947 312.8361 15.29355789304462 Max Valier Sat 1 42778U 17036P 22349.79541303 .00016019 00000-0 54273-3 0 9998 2 42778 97.1837 24.8146 0011239 47.3943 312.8244 15.30581799304601 Pegasus 1 42784U 17036V 22349.63281285 .00019843 00000-0 61228-3 0 9994 2 42784 97.1772 25.9715 0010461 47.3284 312.8839 15.33550174304734 NUDATSat 1 42787U 17036Y 22349.56944789 .00039912 00000-0 90856-3 0 9992 2 42787 97.1781 31.7960 0008057 30.9750 329.1973 15.42820674304924 SUCHAI 1 1 42788U 17036Z 22349.55480713 .00025619 00000-0 71548-3 0 9990 2 42788 97.1769 28.1441 0009336 41.8116 318.3840 15.36652383304930 SKCUBE 1 42789U 17036AA 22349.34564425 .00021708 00000-0 63549-3 0 9998 2 42789 97.1769 27.1336 0009615 43.7970 316.4034 15.35206967304770 VZLUSAT 1 1 42790U 17036AB 22349.53983854 .00045369 00000-0 10448-2 0 9990 2 42790 97.1781 31.6737 0007638 32.6855 327.4864 15.42449388305063 VENTA 1 1 42791U 17036AC 22349.54593300 .00018993 00000-0 58041-3 0 9990 2 42791 97.1778 26.9961 0009594 45.2495 314.9527 15.33874668304776 Robusta 1B 1 42792U 17036AD 22349.67470835 .00024694 00000-0 70000-3 0 9996 2 42792 97.1767 28.1997 0008982 42.5932 317.6008 15.36197289304880 D-SAT 1 42794U 17036AF 22349.49835408 .00002365 00000-0 19956-3 0 9993 2 42794 97.4574 345.5070 0120277 197.9359 161.7601 14.93596541298491 TechnoSat 1 42829U 17042E 22349.62086465 .00001624 00000-0 16348-3 0 9994 2 42829 97.3987 193.0393 0015110 117.8644 242.4109 14.92384611295105 AO-91 1 43017U 17073E 22349.51520086 .00008429 00000-0 62111-3 0 9997 2 43017 97.6524 236.2261 0242563 314.5010 43.6601 14.82946337273939 PICSAT 1 43132U 18004X 22349.13066001 .00028359 00000-0 77493-3 0 9993 2 43132 97.3561 65.0040 0008113 74.8682 285.3459 15.37323602274101 AO-92 1 43137U 18004AC 22348.72512607 .00015753 00000-0 48462-3 0 9998 2 43137 97.3521 62.5504 0008441 83.1848 277.0355 15.33717958273930 TianYi 2 1 43155U 18008A 22349.48700561 .00011271 00000-0 55228-3 0 9993 2 43155 97.3290 42.1339 0013794 231.2451 241.9871 15.18223638270712 Zhou Enlai 1 43156U 18008B 22349.45908153 .00011959 00000-0 58721-3 0 9992 2 43156 97.3335 42.0487 0011399 230.7331 259.8469 15.18163442270634 TianYi 6 1 43158U 18008D 22349.37722314 .00009821 00000-0 50412-3 0 9992 2 43158 97.3307 39.5444 0010987 234.3653 187.4086 15.16660711270504 S-Net D 1 43186U 18014G 22349.55393988 .00003915 00000-0 33001-3 0 9994 2 43186 97.6476 251.7588 0012473 56.8571 303.3846 14.98693297266030 S-Net B 1 43187U 18014H 22349.48759001 .00003887 00000-0 32769-3 0 9997 2 43187 97.6472 251.6362 0012522 56.9666 303.2758 14.98690261266025 S-Net A 1 43188U 18014J 22349.62142114 .00003903 00000-0 32907-3 0 9998 2 43188 97.6478 251.8418 0012518 56.4618 303.7799 14.98691995266040 S-Net C 1 43189U 18014K 22349.62252665 .00003880 00000-0 32715-3 0 9993 2 43189 97.6475 251.7547 0012545 56.1133 304.1281 14.98688479264591 FMN 1 1 43192U 18015A 22349.48470435 .00080864 00000-0 12533-2 0 9991 2 43192 97.5527 141.3601 0007743 101.6102 330.2348 15.53710480271382 Shaonian Xing 1 43199U 18015H 22349.49919502 .00033780 00000-0 78827-3 0 9996 2 43199 97.5338 134.1837 0011980 113.7961 286.7304 15.42073305271265 SurfSat 1 43614U 18070B 22348.31263607 .00162538 00000-0 86925-3 0 9999 2 43614 92.9984 175.8178 0007491 23.3783 336.7833 15.79875989239178 CP-7 DAVE 1 43615U 18070C 22349.49519103 .00135929 00000-0 92437-3 0 9994 2 43615 92.9983 175.8756 0008314 24.3936 335.7729 15.74483868239287 CubeBel-1 1 43666U 18083E 22349.90664492 .00016306 00000-0 61393-3 0 9996 2 43666 97.4040 16.7980 0013743 56.9525 42.3759 15.27095870229133 Changshagaoxin 1 43669U 18083H 22349.63658961 .00013343 00000-0 53347-3 0 9991 2 43669 97.4004 11.9385 0010564 59.0869 90.0725 15.25176954228880 Ten-Koh 1 43677U 18084G 22349.63575113 .00002083 00000-0 21254-3 0 9999 2 43677 97.9872 121.6768 0016314 38.4334 321.8043 14.91677216224689 PO-101 1 43678U 18084H 22349.61975081 .00001760 00000-0 17688-3 0 9993 2 43678 97.9956 125.3442 0010868 53.6554 306.5675 14.92555070224870 IRVINE 01 1 43693U 18088D 22349.59108540 .00173443 00000-0 19106-2 0 9993 2 43693 85.0194 186.3787 0005685 102.1522 258.0379 15.62549297228210 QO-100 1 43700U 18090A 22349.30321116 .00000165 00000-0 00000-0 0 9991 2 43700 0.0146 315.4641 0001587 345.6798 277.7856 1.00273529 14842 Reaktor Hello World 1 43743U 18096AA 22349.20949115 .00024989 00000-0 63189-3 0 9998 2 43743 97.3394 68.7893 0014286 126.3040 233.9527 15.39665394225715 MinXSS-2 1 43758U 18099A 22349.41681224 .00004157 00000-0 35071-3 0 9998 2 43758 97.6059 52.8931 0015601 23.5325 336.6608 14.98587608220198 AO-95 1 43770U 18099N 22349.14567245 .00003282 00000-0 28620-3 0 9998 2 43770 97.6009 50.6964 0014855 35.0977 325.1221 14.97459210220044 RANGE-B 1 43772U 18099Q 22348.98216578 .00004754 00000-0 40268-3 0 9998 2 43772 97.6113 52.6848 0013119 20.8240 339.3515 14.98393617220055 RANGE-A 1 43773U 18099R 22349.46521200 .00003306 00000-0 29336-3 0 9999 2 43773 97.5926 49.5663 0013694 23.7310 336.4541 14.96779586220064 MOVE-II 1 43780U 18099Y 22349.71536257 .00006575 00000-0 54004-3 0 9994 2 43780 97.6028 52.9026 0011487 28.3754 331.8093 14.99457056220203 SNUSat 2 1 43782U 18099AA 22349.71093679 .00003482 00000-0 30288-3 0 9994 2 43782 97.5996 51.7514 0012203 18.8460 341.3211 14.97543025220154 SnugLite 1 43784U 18099AC 22349.45039981 .00004159 00000-0 35763-3 0 9998 2 43784 97.5957 51.1206 0014628 27.3520 332.8470 14.97862388220147 ITASat 1 1 43786U 18099AE 22349.39576972 .00003874 00000-0 33683-3 0 9991 2 43786 97.6031 51.9443 0015133 28.2605 331.9435 14.97464387220126 EAGLET 1 1 43790U 18099AJ 22349.41205948 .00002603 00000-0 22794-3 0 9991 2 43790 97.6034 52.5031 0013875 31.4235 328.7813 14.97479067219864 ESEO 1 43792U 18099AL 22349.42966572 .00001118 00000-0 10293-3 0 9992 2 43792 97.5972 51.4399 0013672 27.7056 332.4891 14.96630885219892 CSIM 1 43793U 18099AM 22349.40825039 .00007038 00000-0 56735-3 0 9991 2 43793 97.6102 53.6969 0015236 23.8269 336.3657 15.00118712219997 Astrocast 0.1 1 43798U 18099AS 22349.72634236 .00005050 00000-0 42073-3 0 9990 2 43798 97.6030 53.6211 0010990 9.0646 351.0773 14.99021527220257 JO-97 1 43803U 18099AX 22349.47532925 .00004507 00000-0 38359-3 0 9999 2 43803 97.6007 51.8517 0015219 26.6566 333.5436 14.98205842220166 Suomi 100 1 43804U 18099AY 22349.70850426 .00004005 00000-0 34311-3 0 9992 2 43804 97.5977 51.9578 0014556 23.1955 336.9921 14.98030086220204 Al Farabi 2 1 43805U 18099AZ 22349.61058163 .00006000 00000-0 49927-3 0 9997 2 43805 97.6032 52.5898 0015279 25.3190 334.8777 14.98950856220222 CHOMPTT 1 43855U 18104G 22349.85256487 .00017542 00000-0 58077-3 0 9993 2 43855 85.0331 289.9171 0011026 289.9174 70.0885 15.31133775222442 ISAT 1 43879U 18111D 22349.48627584 .00006083 00000-0 50178-3 0 9998 2 43879 97.6541 251.8069 0015131 75.1753 285.1145 14.99291216216789 UWE-4 1 43880U 18111E 22349.67447612 .00005089 00000-0 42008-3 0 9991 2 43880 97.6556 252.8056 0012830 77.9014 282.3646 14.99363203214843 Sparrow 1 43881U 18111F 22349.46894489 .00005272 00000-0 43242-3 0 9992 2 43881 97.6568 252.9130 0011850 76.3723 283.8819 14.99601477216828 Lume 1 1 43908U 18111AJ 22349.67599545 .00018306 00000-0 54311-3 0 9991 2 43908 97.1657 231.9569 0017362 138.6291 221.6271 15.34712813221141 FO-99 1 43937U 19003F 22349.56948310 .00022956 00000-0 65125-3 0 9991 2 43937 97.1125 16.2602 0016566 219.4759 140.5280 15.36086753217724 MYSat 1 1 44045U 18092F 22347.70838361 .01791092 28378-2 14470-2 0 9998 2 44045 51.6095 239.6013 0006775 180.9397 179.1607 16.14231552216001 AstroCast 0.2 1 44083U 19018F 22349.71993362 .00019312 00000-0 63034-3 0 9993 2 44083 97.2983 45.4268 0008236 188.8183 171.2916 15.31780265206186 AISTechSat 3 1 44103U 19018AB 22349.68898667 .00015644 00000-0 51890-3 0 9995 2 44103 97.2848 45.5045 0010214 203.7298 156.3474 15.31287262206346 AISat 1 1 44104U 19018AC 22348.98225353 .00013756 00000-0 34741-3 0 9992 2 44104 97.3857 73.0733 0047743 203.6991 156.2056 15.38741137207321 Prox-1 1 44339U 19036A 22349.52261082 .00005654 00000-0 12027-2 0 9992 2 44339 23.9998 129.3839 0010631 41.3575 318.7721 14.56355895184762 Oculus-ASR 1 44348U 19036K 22349.33835213 .00153751 -48946-6 80169-3 0 9997 2 44348 28.4957 2.0802 0149188 217.6572 141.3508 15.65000872192607 NO-104 1 44354U 19036R 22349.04677126 .00164292 64611-6 74175-3 0 9997 2 44354 28.5214 343.6995 0135064 243.2863 115.3863 15.70051674192768 Move-IIb 1 44398U 19038N 22349.88811421 .00020864 00000-0 85879-3 0 9992 2 44398 97.6450 321.7150 0016895 216.0770 143.9329 15.24025729190617 SONATE 1 44400U 19038Q 22349.50332091 .00007483 00000-0 38349-3 0 9998 2 44400 97.6645 319.2813 0020952 225.8403 134.1108 15.16685621190357 BeeSat 9 1 44412U 19038AC 22349.48655034 .00015147 00000-0 69406-3 0 9997 2 44412 97.6577 320.7211 0016935 224.4783 135.5093 15.20445191190163 JAISAT-1 1 44419U 19038F 22349.67981717 .00015177 00000-0 68661-3 0 9990 2 44419 97.6584 321.8921 0016039 219.9417 140.0639 15.20895804190567 Taurus 1 1 44530U 19059C 22349.88155044 .00003389 00000-0 92508-3 0 9995 2 44530 98.5517 90.2756 0012096 289.0733 70.9155 14.47938151172091 Duchifat 3 1 44854U 19089C 22349.36837508 .00006177 00000-0 46050-3 0 9991 2 44854 36.9635 106.7528 0008027 258.5771 139.4606 15.02590260165146 OPS-SAT 1 44878U 19092F 22349.49493736 .00015144 00000-0 62791-3 0 9990 2 44878 97.4767 172.3514 0012824 69.5216 290.7397 15.23903124165720 TO-108 1 44881U 19093C 22349.68101775 .00000888 00000-0 11855-3 0 9999 2 44881 97.8801 66.1798 0014051 320.7408 39.2796 14.81973212161611 FloripaSat 1 1 44885U 19093G 22349.85420935 .00002883 00000-0 35295-3 0 9995 2 44885 97.8851 68.1857 0013231 324.5835 35.4492 14.83922773161746 RS-44 1 44909U 19096E 22349.10389815 .00000040 00000-0 12200-3 0 9998 2 44909 82.5208 110.2698 0216511 257.2554 100.4271 12.79717054138613 BY70-2 1 45857U 20042B 22349.43176146 .00011352 00000-0 14152-2 0 9996 2 45857 97.9438 64.7339 0009222 243.0606 116.9668 14.82572190132247 UPMSat 2 1 46276U 20061E 22349.60974750 .00006780 00000-0 31976-3 0 9992 2 46276 97.3725 56.2683 0000394 138.3999 221.7266 15.19792655126373 AmicalSat 1 46287U 20061R 22349.15772018 .00007299 00000-0 39624-3 0 9991 2 46287 97.4264 54.6041 0003100 41.1049 319.0416 15.14819357125808 SALSAT 1 46495U 20068K 22349.41601789 .00003191 00000-0 22582-3 0 9996 2 46495 97.7493 291.0447 0017131 29.1664 331.0515 15.05474341121407 BY70-3 1 46839U 20079N 22349.48646453 .00052579 00000-0 82218-3 0 9990 2 46839 97.1786 60.1866 0004513 47.2588 81.4375 15.53602705118220 CAPE 3 1 47309U 21002A 22349.58667131 .00016019 00000-0 55814-3 0 9998 2 47309 60.6824 41.3340 0041906 84.6742 275.9127 15.29038255106108 AO-109 1 47311U 21002C 22349.47175295 .00014238 00000-0 49976-3 0 9997 2 47311 60.6853 39.1901 0038932 83.0713 277.4803 15.29000041106107 MiTEE 1 1 47314U 21002F 22349.57332550 .00039771 00000-0 10082-2 0 9994 2 47314 60.6801 25.0980 0035812 75.4674 285.0388 15.38799623106372 ExoCube 2 1 47319U 21002L 22349.59134639 .00013446 00000-0 47969-3 0 9995 2 47319 60.6834 40.2541 0039723 84.5894 275.9725 15.28484486106061 UVSQ-SAT 1 47438U 21006AB 22349.11028439 .00010092 00000-0 49596-3 0 9991 2 47438 97.4141 44.4382 0011535 15.1021 345.0555 15.18180303104668 YUSAT 1 1 47439U 21006AC 22349.40033761 .00011235 00000-0 53719-3 0 9990 2 47439 97.4148 45.0075 0011112 13.9105 346.2433 15.19109519104728 SOMP 2b 1 47445U 21006AJ 22349.41953014 .00008825 00000-0 44046-3 0 9994 2 47445 97.4117 44.2353 0011391 18.9817 341.1839 15.17677720104697 IDEASSat 1 47458U 21006AX 22349.42124612 .00008415 00000-0 42244-3 0 9996 2 47458 97.4205 44.8987 0010578 18.4559 341.7057 15.17499609104687 CubeSX-Sirius-HSE 1 47951U 21022V 22349.49648064 .00006412 00000-0 40547-3 0 9990 2 47951 97.5140 245.2025 0018671 246.3892 223.4766 15.09219783 95280 CubeSX-HSE 1 47952U 21022W 22349.54140707 .00007075 00000-0 44619-3 0 9998 2 47952 97.5133 245.2769 0018718 245.6937 214.0755 15.09280824 95291 KSU-Cubesat 1 47954U 21022Y 22349.71659952 .00008197 00000-0 51073-3 0 9994 2 47954 97.5145 245.6421 0018050 243.3435 116.5946 15.09684964 95057 GRBAlpha 1 47959U 21022AD 22349.79537699 .00007421 00000-0 46717-3 0 9998 2 47959 97.5134 245.5818 0018644 244.7646 185.2415 15.09330165 94152 Orbicraft-Zorkiy 1 47960U 21022AE 22349.48705367 .00007169 00000-0 44803-3 0 9998 2 47960 97.5164 245.5137 0018186 245.8607 219.0664 15.09616579 94801 STECCO 1 47962U 21022AG 22349.74849644 .00011207 00000-0 64474-3 0 9990 2 47962 97.5131 247.0129 0013020 235.7696 209.2850 15.12553382 94245 DO-111 1 47963U 21022AH 22349.00500438 .00032290 00000-0 14453-2 0 9991 2 47963 97.5168 248.8954 0011762 225.1743 134.8538 15.21149495 94318 MO-110 1 47964U 21022AJ 22349.46272798 .00013520 00000-0 76571-3 0 9992 2 47964 97.5146 247.1234 0015601 231.7972 128.1855 15.13038196 94225 FEES 1 48082U 21022AL 22349.60677671 .00019930 00000-0 10746-2 0 9991 2 48082 97.5149 247.4664 0011642 226.6922 133.3340 15.14753774 93963 CSS 1 48274U 21035A 22349.57666509 .00020514 00000-0 25201-3 0 9995 2 48274 41.4739 194.5783 0004074 111.0935 347.0781 15.59787538 93120 TUBIN 1 48900U 21059X 22349.72863362 .00006284 00000-0 33468-3 0 9992 2 48900 97.5764 118.0285 0009559 190.2430 281.2103 15.15535548 81359 IT-SPINS 1 49017U 21013G 22349.44674383 .00016724 00000-0 56470-3 0 9992 2 49017 51.5960 251.1485 0007369 23.5211 336.6104 15.30763758 81461 LEDSAT 1 49069U 21073D 22349.49929983 .00005992 00000-0 36639-3 0 9999 2 49069 97.5063 58.7933 0026925 36.4673 323.8384 15.10310812 73146 CUTE 1 49263U 21088D 22349.45014733 .00006438 00000-0 45873-3 0 9991 2 49263 97.5705 53.7350 0019963 164.6500 195.5336 15.04771480 66621 TeikyoSat 4 1 49396U 21102B 22349.09862636 .00002006 00000-0 16023-3 0 9990 2 49396 97.5415 41.5748 0017329 10.4926 349.6656 15.01252187 60149 Z-Sat 1 49399U 21102E 22349.59881418 .00001837 00000-0 13933-3 0 9995 2 49399 97.5135 43.2470 0022080 339.3223 20.7107 15.03259911 60293 KOSEN 1 1 49402U 21102H 22349.45777433 .00002996 00000-0 21724-3 0 9990 2 49402 97.5055 43.3716 0021044 328.4181 31.5781 15.04513265 60311 HO-113 1 50466U 21131B 22349.57192356 .00000336 00000-0 12444-3 0 9997 2 50466 98.5683 66.6226 0003837 340.6414 19.4627 14.38594687 50956 Tevel-3 1 50988U 22002E 22349.66827836 .00011761 00000-0 59117-3 0 9994 2 50988 97.4615 53.7285 0009932 148.5849 2.5939 15.17367658 50862 Tevel-8 1 50989U 22002F 22349.80142547 .00011597 00000-0 58385-3 0 9993 2 50989 97.4621 53.8978 0010022 147.3375 307.8294 15.17313321 50888 Tevel-5 1 50998U 22002Q 22349.49255882 .00012070 00000-0 59685-3 0 9996 2 50998 97.4603 53.7651 0011311 145.6742 342.7960 15.17919983 50857 Tevel-6 1 50999U 22002R 22349.49202341 .00012054 00000-0 59595-3 0 9991 2 50999 97.4605 53.7630 0011473 145.6208 345.1371 15.17926218 50855 Tevel-1 1 51013U 22002AF 22349.67369301 .00011642 00000-0 58575-3 0 9998 2 51013 97.4604 53.6989 0009830 148.6501 2.4145 15.17336873 50866 Grizu-263a 1 51025U 22002AT 22349.14263238 .00027883 00000-0 11928-2 0 9999 2 51025 97.4775 55.2409 0011819 148.6752 211.5190 15.22724748 50873 NO-116 1 51031U 22002AZ 22348.70981119 .00016052 00000-0 74494-3 0 9996 2 51031 97.4725 54.0885 0012601 151.6107 208.5817 15.20043795 50773 IRIS-A 1 51044U 22002BN 22349.47074699 .00008046 00000-0 43113-3 0 9999 2 51044 97.4615 53.0532 0009585 150.5543 209.6231 15.15223186 50806 Tevel-7 1 51062U 22002CG 22349.68190438 .00011630 00000-0 58557-3 0 9993 2 51062 97.4621 53.7597 0009995 147.2278 4.2768 15.17310364 50861 Tevel-4 1 51063U 22002CH 22349.68381880 .00011526 00000-0 58071-3 0 9992 2 51063 97.4613 53.7545 0009958 147.4011 4.3904 15.17290852 50864 Tevel-2 1 51069U 22002CP 22349.67004816 .00011778 00000-0 59208-3 0 9990 2 51069 97.4605 53.7095 0009856 148.0823 3.0232 15.17363387 50860 DELFI-PQ 1 51074U 22002CU 22349.42326523 .00019656 00000-0 86144-3 0 9993 2 51074 97.4858 56.1473 0012437 177.3279 182.8026 15.21968190 50935 SO-115 1 51080U 22002DA 22349.42078099 .00013906 00000-0 64919-3 0 9990 2 51080 97.4873 55.7502 0012562 178.6353 181.4918 15.19872672 50901 SO-114 1 51081U 22002DB 22349.42050963 .00014563 00000-0 67905-3 0 9999 2 51081 97.4863 55.7145 0012864 178.6296 181.4977 15.19900171 50906 OreSat0 1 52017U 22026K 22349.52043069 .00012277 00000-0 60503-3 0 9992 2 52017 97.5093 347.4036 0026369 10.4118 349.7656 15.17782600 41628 Planetum 1 1 52738U 22057G 22349.27722163 .00009761 00000-0 53643-3 0 9998 2 52738 97.5261 101.3717 0006634 266.8087 93.2386 15.14286802 30778 Foresail-1 1 52766U 22057AL 22349.40133053 .00006783 00000-0 36541-3 0 9997 2 52766 97.5364 102.1175 0011969 244.9421 186.7452 15.15074546 30814 SNUGLITE 2 1 52899U 22065F 22349.41798949 .00001022 00000-0 22908-3 0 9998 2 52899 98.0421 134.7701 0009290 73.9530 286.2692 14.58605955 24064 CTIM 1 52950U 22074G 22349.27197235 .00022985 00000-0 82969-3 0 9995 2 52950 45.0060 294.6077 0006687 141.0762 219.0603 15.28148148 25348 IO-117 1 53106U 22080B 22340.05508001 -.00000003 00000-0 00000-0 0 9991 2 53106 70.1754 26.8219 0009008 228.0435 131.9458 6.42557522 9345 AstroBioCubeSat 1 53107U 22080C 22335.48380743 -.00000003 00000-0 00000+0 0 9993 2 53107 70.1708 28.4998 0013747 221.0196 138.9480 6.42110587 8942 CELESTA 1 53111U 22080G 22310.17474584 -.00000003 00000-0 00000+0 0 9994 2 53111 70.4223 37.2580 0024959 243.8956 115.9136 6.43203861 7301 RS4S 1 53306U 98067TR 22349.59854818 .00208440 00000-0 14545-2 0 9994 2 53306 51.6330 148.7122 0006707 228.7268 131.3153 15.73113953 22927 RS3S 1 53308U 98067TT 22349.61685702 .00192320 00000-0 14004-2 0 9992 2 53308 51.6337 148.8315 0006559 224.5775 135.4696 15.72164484 22980 RS1S 1 53309U 98067TU 22349.59000428 .00201496 00000-0 14127-2 0 9997 2 53309 51.6332 148.6436 0007134 228.5016 131.5371 15.73021452 22930 RS5S 1 53310U 98067TV 22349.55196924 .00199548 00000-0 14494-2 0 9993 2 53310 51.6337 149.1475 0006894 224.6108 135.4336 15.72197833 22959 RS6S 1 53311U 98067TW 22348.86323309 .00177691 00000-0 12154-2 0 9992 2 53311 51.6328 152.0384 0006742 222.4241 137.6237 15.73677332 22871 RS9S 1 53312U 98067TX 22349.59536090 .00203914 00000-0 14503-2 0 9995 2 53312 51.6337 148.6889 0007364 229.4375 130.5983 15.72675272 22925 RS12S 1 53313U 98067TY 22349.58972510 .00202870 00000-0 14361-2 0 9998 2 53313 51.6343 148.6516 0006849 230.5846 129.4546 15.72793588 22971 JAGSAT 1 53771U 98067UJ 22349.62533346 .00232317 00000-0 16691-2 0 9998 2 53771 51.6338 150.3929 0008423 241.5619 118.4531 15.72339312 15651 SelfieSat 1 53951U 22057BA 22349.29009199 .00010563 00000-0 57418-3 0 9991 2 53951 97.5312 101.6399 0009033 258.5005 101.5213 15.14640099 30781 FO-118 1 54684U 22167C 22349.61792922 .00007674 00000-0 49105-3 0 9999 2 54684 97.5382 124.5066 0013592 244.0385 115.9444 15.08788469 951 /EX
